When you browse on this site, cookies collect data to enhance your experience and personalize the content and advertising you see.
Visit our Privacy Policy to learn more. By continuing to use the site, you agree to this use of cookies and data.
  • Em Portugal
  • Lista de países
  • Para 7 dias
  • Temperatura da água
  • Mapa do tempo
  • Widgets de tempo
  • user-avatar
    Iniciar Sessão

    Previsão horária em Vlora

    Hoje, 2 Junho, Terça-feira

    Tempo Temperatura Precipitação Vento Pressão Humidade
    00:00 +14°C° 0 mm 4 m/s 758 mmHg 79%
    01:00 +14°C° 0 mm 4 m/s 758 mmHg 78%
    02:00 +14°C° 0 mm 3 m/s 758 mmHg 78%
    03:00 +14°C° 0 mm 3 m/s 758 mmHg 77%
    04:00 +14°C° 0 mm 3 m/s 758 mmHg 76%
    05:00 +16°C° 0 mm 3 m/s 758 mmHg 71%
    06:00 +18°C° 0 mm 3 m/s 758 mmHg 67%
    07:00 +19°C° 0 mm 3 m/s 758 mmHg 62%
    08:00 +20°C° 0 mm 3 m/s 758 mmHg 59%
    09:00 +21°C° 0 mm 3 m/s 758 mmHg 56%
    10:00 +22°C° 0 mm 3 m/s 758 mmHg 52%
    11:00 +23°C° 0 mm 4 m/s 758 mmHg 53%
    12:00 +23°C° 0 mm 5 m/s 758 mmHg 54%
    13:00 +23°C° 0 mm 6 m/s 757 mmHg 55%
    14:00 +23°C° 0 mm 6 m/s 757 mmHg 56%
    15:00 +22°C° 0 mm 6 m/s 757 mmHg 58%
    16:00 +22°C° 0 mm 6 m/s 757 mmHg 60%
    17:00 +21°C° 0 mm 5 m/s 757 mmHg 66%
    18:00 +19°C° 0 mm 5 m/s 756 mmHg 72%
    19:00 +17°C° 0 mm 5 m/s 756 mmHg 78%
    20:00 +18°C° 0 mm 4 m/s 757 mmHg 79%
    21:00 +17°C° 0 mm 4 m/s 757 mmHg 79%
    22:00 +17°C° 0 mm 3 m/s 757 mmHg 79%
    23:00 +16°C° 0 mm 3 m/s 757 mmHg 76%

    Amanhã, 3 Junho, Quarta-feira

    Tempo Temperatura Precipitação Vento Pressão Humidade
    00:00 +16°C° 0 mm 3 m/s 757 mmHg 73%
    01:00 +16°C° 0 mm 3 m/s 757 mmHg 70%
    02:00 +16°C° 0.1 mm 3 m/s 756 mmHg 69%
    03:00 +16°C° 0.1 mm 3 m/s 756 mmHg 69%
    04:00 +16°C° 0.1 mm 3 m/s 756 mmHg 69%
    05:00 +17°C° 0.1 mm 3 m/s 756 mmHg 65%
    06:00 +19°C° 0.1 mm 2 m/s 756 mmHg 62%
    07:00 +20°C° 0.1 mm 2 m/s 756 mmHg 59%
    08:00 +21°C° 0 mm 2 m/s 756 mmHg 57%
    09:00 +23°C° 0 mm 2 m/s 757 mmHg 56%
    10:00 +24°C° 0 mm 3 m/s 757 mmHg 54%
    11:00 +24°C° 0 mm 3 m/s 757 mmHg 53%
    12:00 +23°C° 0 mm 4 m/s 757 mmHg 53%
    13:00 +23°C° 0 mm 5 m/s 757 mmHg 53%
    14:00 +23°C° 0 mm 5 m/s 756 mmHg 52%
    15:00 +23°C° 0 mm 5 m/s 756 mmHg 51%
    16:00 +23°C° 0 mm 5 m/s 756 mmHg 51%
    17:00 +21°C° 0 mm 4 m/s 756 mmHg 56%
    18:00 +20°C° 0 mm 3 m/s 757 mmHg 61%
    19:00 +19°C° 0 mm 3 m/s 757 mmHg 66%
    20:00 +18°C° 0 mm 2 m/s 757 mmHg 64%
    21:00 +18°C° 0 mm 2 m/s 757 mmHg 63%
    22:00 +18°C° 0 mm 1 m/s 758 mmHg 61%
    23:00 +18°C° 0 mm 1 m/s 758 mmHg 57%

    Depois de amanhã, 4 Junho, Quinta-feira

    Tempo Temperatura Precipitação Vento Pressão Humidade
    00:00 +18°C° 0 mm 1 m/s 758 mmHg 53%
    01:00 +18°C° 0 mm 1 m/s 758 mmHg 49%
    02:00 +17°C° 0 mm 2 m/s 757 mmHg 50%
    03:00 +17°C° 0 mm 4 m/s 757 mmHg 50%
    04:00 +16°C° 0 mm 5 m/s 757 mmHg 51%
    05:00 +17°C° 0 mm 5 m/s 757 mmHg 51%
    06:00 +20°C° 0 mm 6 m/s 757 mmHg 51%
    07:00 +21°C° 0 mm 7 m/s 757 mmHg 52%
    08:00 +23°C° 0 mm 7 m/s 758 mmHg 50%
    09:00 +24°C° 0 mm 8 m/s 758 mmHg 48%
    10:00 +26°C° 0 mm 8 m/s 758 mmHg 47%
    11:00 +27°C° 0 mm 9 m/s 758 mmHg 46%
    12:00 +27°C° 0 mm 9 m/s 758 mmHg 46%
    13:00 +27°C° 0 mm 10 m/s 758 mmHg 45%
    14:00 +27°C° 0 mm 10 m/s 758 mmHg 46%
    15:00 +26°C° 0 mm 10 m/s 758 mmHg 46%
    16:00 +26°C° 0 mm 10 m/s 758 mmHg 46%
    17:00 +23°C° 0 mm 10 m/s 758 mmHg 54%
    18:00 +22°C° 0 mm 10 m/s 758 mmHg 62%
    19:00 +19°C° 0 mm 10 m/s 758 mmHg 70%
    20:00 +19°C° 0 mm 11 m/s 758 mmHg 68%
    21:00 +18°C° 0 mm 11 m/s 758 mmHg 67%
    22:00 +18°C° 0 mm 11 m/s 758 mmHg 66%
    23:00 +18°C° 0 mm 11 m/s 758 mmHg 65%

    5 Junho, Sexta-feira

    Tempo Temperatura Precipitação Vento Pressão Humidade
    00:00 +18°C° 0 mm 12 m/s 758 mmHg 64%
    01:00 +18°C° 0 mm 12 m/s 757 mmHg 62%
    02:00 +18°C° 0 mm 12 m/s 757 mmHg 61%
    03:00 +18°C° 0 mm 11 m/s 757 mmHg 59%
    04:00 +18°C° 0 mm 11 m/s 757 mmHg 57%
    05:00 +19°C° 0 mm 11 m/s 757 mmHg 56%
    06:00 +21°C° 0 mm 11 m/s 757 mmHg 55%
    07:00 +22°C° 0 mm 11 m/s 757 mmHg 53%
    08:00 +22°C° 0.3 mm 10 m/s 757 mmHg 56%
    09:00 +21°C° 0.3 mm 10 m/s 757 mmHg 60%
    10:00 +21°C° 0.3 mm 10 m/s 757 mmHg 63%
    11:00 +19°C° 2.7 mm 11 m/s 757 mmHg 69%
    12:00 +18°C° 2.7 mm 12 m/s 757 mmHg 76%
    13:00 +15°C° 2.7 mm 13 m/s 757 mmHg 82%
    14:00 +18°C° 0.1 mm 13 m/s 756 mmHg 72%
    15:00 +21°C° 0.1 mm 12 m/s 756 mmHg 62%
    16:00 +22°C° 0.1 mm 12 m/s 755 mmHg 53%
    17:00 +22°C° 0 mm 11 m/s 755 mmHg 55%
    18:00 +21°C° 0 mm 10 m/s 755 mmHg 58%
    19:00 +19°C° 0 mm 10 m/s 755 mmHg 61%
    20:00 +19°C° 0.1 mm 10 m/s 755 mmHg 62%
    21:00 +19°C° 0.1 mm 9 m/s 756 mmHg 63%
    22:00 +19°C° 0.1 mm 9 m/s 756 mmHg 64%
    23:00 +18°C° 0.5 mm 9 m/s 756 mmHg 72%

    6 Junho, Sábado

    Tempo Temperatura Precipitação Vento Pressão Humidade
    00:00 +18°C° 0.5 mm 8 m/s 756 mmHg 80%
    01:00 +18°C° 0.5 mm 8 m/s 755 mmHg 87%
    02:00 +18°C° 0.4 mm 7 m/s 755 mmHg 88%
    03:00 +19°C° 0.4 mm 6 m/s 756 mmHg 89%
    04:00 +19°C° 0.4 mm 5 m/s 756 mmHg 90%
    05:00 +20°C° 0.1 mm 4 m/s 756 mmHg 83%
    06:00 +21°C° 0.1 mm 3 m/s 756 mmHg 75%
    07:00 +22°C° 0.1 mm 3 m/s 757 mmHg 68%
    08:00 +24°C° 0.1 mm 3 m/s 757 mmHg 65%
    09:00 +24°C° 0.1 mm 3 m/s 758 mmHg 62%
    10:00 +24°C° 0.1 mm 3 m/s 758 mmHg 59%
    11:00 +23°C° 0 mm 4 m/s 758 mmHg 58%
    12:00 +25°C° 0 mm 4 m/s 758 mmHg 56%
    13:00 +25°C° 0 mm 5 m/s 758 mmHg 54%
    14:00 +24°C° 0 mm 6 m/s 758 mmHg 56%
    15:00 +24°C° 0 mm 7 m/s 758 mmHg 57%
    16:00 +24°C° 0 mm 8 m/s 758 mmHg 58%
    17:00 +22°C° 0 mm 7 m/s 758 mmHg 63%
    18:00 +21°C° 0 mm 6 m/s 759 mmHg 68%
    19:00 +19°C° 0 mm 6 m/s 759 mmHg 74%
    20:00 +19°C° 0 mm 5 m/s 759 mmHg 71%
    21:00 +18°C° 0 mm 4 m/s 759 mmHg 69%
    22:00 +18°C° 0 mm 4 m/s 760 mmHg 67%
    23:00 +18°C° 0 mm 4 m/s 760 mmHg 66%

    7 Junho, Domingo

    Tempo Temperatura Precipitação Vento Pressão Humidade
    00:00 +17°C° 0 mm 4 m/s 760 mmHg 65%
    01:00 +16°C° 0 mm 5 m/s 760 mmHg 64%
    02:00 +16°C° 0 mm 5 m/s 759 mmHg 64%
    03:00 +15°C° 0 mm 5 m/s 759 mmHg 63%
    04:00 +15°C° 0 mm 5 m/s 759 mmHg 63%
    05:00 +18°C° 0 mm 4 m/s 759 mmHg 59%
    06:00 +19°C° 0 mm 4 m/s 759 mmHg 55%
    07:00 +21°C° 0 mm 4 m/s 760 mmHg 51%
    08:00 +22°C° 0 mm 3 m/s 760 mmHg 48%
    09:00 +25°C° 0 mm 3 m/s 760 mmHg 45%
    10:00 +26°C° 0 mm 3 m/s 760 mmHg 42%
    11:00 +26°C° 0 mm 3 m/s 760 mmHg 43%
    12:00 +27°C° 0 mm 3 m/s 760 mmHg 44%
    13:00 +27°C° 0 mm 3 m/s 759 mmHg 45%
    14:00 +27°C° 0 mm 2 m/s 759 mmHg 46%
    15:00 +26°C° 0 mm 2 m/s 759 mmHg 46%
    16:00 +26°C° 0 mm 1 m/s 759 mmHg 46%
    17:00 +25°C° 0 mm 1 m/s 759 mmHg 52%
    18:00 +24°C° 0 mm 1 m/s 759 mmHg 58%
    19:00 +21°C° 0 mm 2 m/s 759 mmHg 64%
    20:00 +22°C° 0 mm 1 m/s 760 mmHg 64%
    21:00 +22°C° 0 mm 1 m/s 760 mmHg 64%
    22:00 +22°C° 0 mm 1 m/s 760 mmHg 65%
    23:00 +21°C° 0 mm 1 m/s 760 mmHg 65%
    Mostrar mais